AFR73CU LFPG-LIRN

Flight info

Callsign AFR73CU
Flight time 2h 3m
Altitude 35000
Route OKASI DCT OKEKO DCT MOU DCT MADIV DCT MOKIP DCT TUFTA DCT KOGAS DCT MEDAM DCT NITAM DCT MOGBO DCT ELB DCT GILIO DCT MEDAL DCT RAVAL DCT LUNAK DCT ELVIN DCT RIFFI DCT PNZ
Aircraft A320/M-SDE3FGHIRWY/LB1

Departure

Time 2026-05-05 14:28
Airport Charles de Gaulle International Airport (LFPG)

Arrival

Time 2026-05-05 16:31
Airport Naples International Airport (LIRN)
Time Latitude Longitude Altitude Speed Heading
2026-05-05 13:24 49.01609 2.53859 359 ft 0 kts 170°
2026-05-05 14:07 49.01610 2.53859 359 ft 1 kts 170°
2026-05-05 14:07 49.01624 2.53855 359 ft 3 kts 170°
2026-05-05 14:07 49.01642 2.53850 359 ft 3 kts 170°
2026-05-05 14:07 49.01663 2.53845 359 ft 3 kts 170°
2026-05-05 14:08 49.01683 2.53840 359 ft 3 kts 170°
2026-05-05 14:08 49.01703 2.53834 359 ft 3 kts 170°
2026-05-05 14:08 49.01718 2.53830 359 ft 0 kts 170°
2026-05-05 14:14 49.01716 2.53831 359 ft 1 kts 174°
2026-05-05 14:14 49.01713 2.53827 359 ft 1 kts 226°
2026-05-05 14:14 49.01705 2.53812 359 ft 3 kts 230°
2026-05-05 14:15 49.01688 2.53785 359 ft 4 kts 224°
2026-05-05 14:15 49.01660 2.53752 359 ft 6 kts 217°
2026-05-05 14:15 49.01626 2.53712 359 ft 6 kts 216°
2026-05-05 14:15 49.01607 2.53694 359 ft 1 kts 217°
2026-05-05 14:16 49.01597 2.53673 359 ft 3 kts 238°
2026-05-05 14:16 49.01591 2.53632 359 ft 5 kts 279°
2026-05-05 14:16 49.01612 2.53585 359 ft 6 kts 316°
2026-05-05 14:16 49.01643 2.53529 359 ft 8 kts 304°
2026-05-05 14:17 49.01668 2.53449 359 ft 9 kts 284°
2026-05-05 14:17 49.01671 2.53347 359 ft 10 kts 265°
2026-05-05 14:17 49.01665 2.53230 359 ft 12 kts 265°
2026-05-05 14:17 49.01657 2.53102 359 ft 12 kts 264°
2026-05-05 14:18 49.01651 2.52999 359 ft 9 kts 268°
2026-05-05 14:18 49.01663 2.52904 359 ft 9 kts 288°
2026-05-05 14:18 49.01692 2.52828 359 ft 9 kts 314°
2026-05-05 14:18 49.01723 2.52776 359 ft 7 kts 303°
2026-05-05 14:19 49.01727 2.52701 359 ft 8 kts 264°
2026-05-05 14:19 49.01721 2.52608 359 ft 10 kts 264°
2026-05-05 14:19 49.01715 2.52500 359 ft 11 kts 265°
2026-05-05 14:19 49.01709 2.52387 359 ft 11 kts 265°
2026-05-05 14:20 49.01703 2.52269 359 ft 11 kts 264°
2026-05-05 14:20 49.01699 2.52191 359 ft 3 kts 273°
2026-05-05 14:20 49.01714 2.52160 359 ft 5 kts 328°
2026-05-05 14:20 49.01750 2.52147 359 ft 6 kts 354°
2026-05-05 14:21 49.01797 2.52142 359 ft 8 kts 355°
2026-05-05 14:21 49.01856 2.52134 359 ft 9 kts 355°
2026-05-05 14:21 49.01915 2.52127 359 ft 6 kts 355°
2026-05-05 14:21 49.01956 2.52122 359 ft 4 kts 355°
2026-05-05 14:22 49.01986 2.52118 359 ft 5 kts 356°
2026-05-05 14:22 49.02028 2.52116 359 ft 7 kts
2026-05-05 14:22 49.02067 2.52115 359 ft 4 kts 357°
2026-05-05 14:22 49.02092 2.52124 359 ft 4 kts 46°
2026-05-05 14:23 49.02104 2.52175 359 ft 6 kts 84°
2026-05-05 14:23 49.02104 2.52184 359 ft 0 kts 86°
2026-05-05 14:27 49.02110 2.52322 359 ft 43 kts 85°
2026-05-05 14:28 49.02158 2.53210 360 ft 122 kts 84°
2026-05-05 14:28 49.02246 2.54828 431 ft 175 kts 85°
2026-05-05 14:28 49.02342 2.56714 1054 ft 181 kts 85°
2026-05-05 14:28 49.02427 2.58643 1818 ft 186 kts 86°
2026-05-05 14:29 49.02518 2.60618 2672 ft 188 kts 84°
2026-05-05 14:29 49.02629 2.62546 3450 ft 181 kts 81°
2026-05-05 14:29 49.02749 2.64483 3919 ft 185 kts 81°
2026-05-05 14:29 49.02873 2.66497 4241 ft 200 kts 83°
2026-05-05 14:30 49.02983 2.68729 4507 ft 220 kts 84°
2026-05-05 14:30 49.03107 2.71144 4838 ft 238 kts 84°
2026-05-05 14:30 49.03239 2.73731 5253 ft 253 kts 84°
2026-05-05 14:30 49.03378 2.76454 5881 ft 259 kts 84°
2026-05-05 14:31 49.03520 2.79211 6580 ft 263 kts 85°
2026-05-05 14:31 49.03667 2.82017 7251 ft 267 kts 85°
2026-05-05 14:31 49.03815 2.84880 7914 ft 271 kts 85°
2026-05-05 14:31 49.03956 2.87712 8560 ft 274 kts 85°
2026-05-05 14:32 49.04100 2.90628 9217 ft 277 kts 85°
2026-05-05 14:32 49.04126 2.93581 9846 ft 280 kts 96°
2026-05-05 14:32 49.03613 2.96494 10289 ft 291 kts 115°
2026-05-05 14:32 49.02389 2.99040 10573 ft 308 kts 137°
2026-05-05 14:33 49.00516 3.00711 10849 ft 324 kts 163°
2026-05-05 14:33 48.98249 3.01136 11427 ft 328 kts 177°
2026-05-05 14:33 48.96019 3.01117 12064 ft 330 kts 179°
2026-05-05 14:33 48.93668 3.01040 12566 ft 336 kts 180°
2026-05-05 14:34 48.91341 3.00488 13003 ft 345 kts 201°
2026-05-05 14:34 48.89254 2.98674 13585 ft 346 kts 213°
2026-05-05 14:34 48.87287 2.96550 14261 ft 345 kts 214°
2026-05-05 14:34 48.85347 2.94484 14711 ft 350 kts 213°
2026-05-05 14:35 48.83274 2.92446 15217 ft 353 kts 210°
2026-05-05 14:35 48.81161 2.90515 15759 ft 354 kts 209°
2026-05-05 14:35 48.79019 2.88615 16301 ft 356 kts 208°
2026-05-05 14:35 48.76884 2.86704 16839 ft 356 kts 209°
2026-05-05 14:36 48.74757 2.84764 17360 ft 357 kts 210°
2026-05-05 14:36 48.72617 2.82785 17871 ft 359 kts 210°
2026-05-05 14:36 48.71219 2.81488 18189 ft 359 kts 210°
2026-05-05 14:36 48.69073 2.79502 18682 ft 360 kts 210°
2026-05-05 14:37 48.66220 2.76882 19275 ft 363 kts 210°
2026-05-05 14:37 48.64044 2.74896 19695 ft 365 kts 210°
2026-05-05 14:37 48.61871 2.72911 20091 ft 367 kts 210°
2026-05-05 14:37 48.59690 2.70919 20477 ft 370 kts 210°
2026-05-05 14:38 48.57458 2.68887 20873 ft 372 kts 210°
2026-05-05 14:38 48.55240 2.66871 21258 ft 373 kts 210°
2026-05-05 14:38 48.53006 2.64836 21628 ft 376 kts 210°
2026-05-05 14:38 48.50797 2.62856 21980 ft 378 kts 206°
2026-05-05 14:39 48.48309 2.61369 22256 ft 379 kts 191°
2026-05-05 14:39 48.45717 2.61039 22618 ft 378 kts 178°
2026-05-05 14:39 48.43094 2.61263 23044 ft 378 kts 175°
2026-05-05 14:39 48.40440 2.61609 23343 ft 381 kts 174°
2026-05-05 14:40 48.37803 2.61928 23686 ft 383 kts 175°
2026-05-05 14:40 48.35120 2.62169 24029 ft 385 kts 176°
2026-05-05 14:40 48.32474 2.62340 24346 ft 386 kts 176°
2026-05-05 14:40 48.29787 2.62531 24674 ft 387 kts 173°
2026-05-05 14:41 48.27116 2.63325 24971 ft 388 kts 161°
2026-05-05 14:41 48.24662 2.64925 25303 ft 387 kts 153°
2026-05-05 14:41 48.22287 2.66829 25634 ft 388 kts 150°
2026-05-05 14:41 48.19912 2.68814 25764 ft 395 kts 150°
2026-05-05 14:42 48.17472 2.70796 25909 ft 400 kts 151°
2026-05-05 14:42 48.14979 2.72726 26155 ft 402 kts 152°
2026-05-05 14:42 48.12506 2.74580 26428 ft 404 kts 153°
2026-05-05 14:42 48.09989 2.76463 26712 ft 405 kts 152°
2026-05-05 14:43 48.07449 2.78287 26973 ft 407 kts 155°
2026-05-05 14:43 48.04843 2.79999 27113 ft 412 kts 155°
2026-05-05 14:43 48.02179 2.81700 27194 ft 418 kts 156°
2026-05-05 14:43 47.99486 2.83386 27268 ft 424 kts 156°
2026-05-05 14:44 47.96739 2.85104 27339 ft 430 kts 156°
2026-05-05 14:44 47.93965 2.86861 27409 ft 436 kts 156°
2026-05-05 14:44 47.91156 2.88649 27477 ft 442 kts 156°
2026-05-05 14:44 47.88336 2.90446 27542 ft 447 kts 156°
2026-05-05 14:45 47.86373 2.91694 27588 ft 451 kts 156°
2026-05-05 14:45 47.82517 2.94130 27706 ft 456 kts 156°
2026-05-05 14:45 47.79611 2.95967 28034 ft 454 kts 156°
2026-05-05 14:45 47.76707 2.97798 28370 ft 452 kts 156°
2026-05-05 14:46 47.74771 2.99013 28558 ft 451 kts 156°
2026-05-05 14:46 47.71876 3.00823 28873 ft 449 kts 155°
2026-05-05 14:46 47.69028 3.02599 29271 ft 445 kts 155°
2026-05-05 14:46 47.66185 3.04386 29581 ft 444 kts 155°
2026-05-05 14:47 47.63343 3.06182 29753 ft 445 kts 154°
2026-05-05 14:47 47.60486 3.07987 29971 ft 444 kts 155°
2026-05-05 14:47 47.57642 3.09772 30168 ft 445 kts 155°
2026-05-05 14:47 47.54781 3.11548 30420 ft 444 kts 155°
2026-05-05 14:48 47.51966 3.13289 30690 ft 443 kts 155°
2026-05-05 14:48 47.49129 3.15041 30935 ft 442 kts 155°
2026-05-05 14:48 47.46305 3.16796 31153 ft 442 kts 155°
2026-05-05 14:48 47.43465 3.18578 31405 ft 441 kts 155°
2026-05-05 14:49 47.40630 3.20351 31639 ft 440 kts 155°
2026-05-05 14:49 47.37822 3.22090 31823 ft 441 kts 156°
2026-05-05 14:49 47.34976 3.23842 32029 ft 441 kts 156°
2026-05-05 14:49 47.32142 3.25590 32278 ft 439 kts 156°
2026-05-05 14:50 47.29317 3.27339 32496 ft 439 kts 156°
2026-05-05 14:50 47.26545 3.29062 32702 ft 438 kts 157°
2026-05-05 14:50 47.23740 3.30801 32881 ft 438 kts 157°
2026-05-05 14:50 47.20917 3.32537 33125 ft 435 kts 158°
2026-05-05 14:51 47.18141 3.34236 33406 ft 433 kts 158°
2026-05-05 14:51 47.15349 3.35943 33580 ft 433 kts 158°
2026-05-05 14:51 47.12561 3.37657 33730 ft 433 kts 158°
2026-05-05 14:51 47.09784 3.39360 33890 ft 433 kts 158°
2026-05-05 14:52 47.06990 3.41067 34022 ft 433 kts 158°
2026-05-05 14:52 47.04234 3.42751 34142 ft 434 kts 158°
2026-05-05 14:52 47.01472 3.44440 34284 ft 433 kts 158°
2026-05-05 14:52 46.98675 3.46150 34406 ft 434 kts 158°
2026-05-05 14:53 46.95890 3.47848 34511 ft 434 kts 158°
2026-05-05 14:53 46.93092 3.49551 34649 ft 434 kts 158°
2026-05-05 14:53 46.90293 3.51250 34759 ft 434 kts 158°
2026-05-05 14:53 46.87536 3.52924 34830 ft 435 kts 158°
2026-05-05 14:54 46.81944 3.56318 34839 ft 434 kts 158°
2026-05-05 14:54 46.76439 3.60037 34833 ft 436 kts 150°
2026-05-05 14:55 46.71837 3.65862 34836 ft 445 kts 130°
2026-05-05 14:55 46.68852 3.73764 34844 ft 457 kts 112°
2026-05-05 14:56 46.67268 3.82774 34853 ft 460 kts 105°
2026-05-05 14:56 46.65837 3.91861 34850 ft 459 kts 107°
2026-05-05 14:57 46.64260 4.00843 34849 ft 459 kts 108°
2026-05-05 14:57 46.62659 4.09797 34850 ft 458 kts 107°
2026-05-05 14:58 46.61105 4.18839 34864 ft 459 kts 107°
2026-05-05 14:58 46.59550 4.27804 34895 ft 460 kts 107°
2026-05-05 14:59 46.57947 4.36851 34888 ft 461 kts 108°
2026-05-05 14:59 46.56342 4.45851 34895 ft 462 kts 108°
2026-05-05 15:00 46.54994 4.53422 34894 ft 462 kts 108°
2026-05-05 15:00 46.53122 4.63945 34896 ft 462 kts 108°
2026-05-05 15:01 46.51492 4.72952 34894 ft 462 kts 108°
2026-05-05 15:01 46.49857 4.81974 34893 ft 462 kts 108°
2026-05-05 15:02 46.48233 4.91005 34895 ft 461 kts 108°
2026-05-05 15:02 46.46585 4.99991 34893 ft 461 kts 108°
2026-05-05 15:03 46.44933 5.08989 34898 ft 460 kts 108°
2026-05-05 15:03 46.43281 5.17950 34896 ft 459 kts 108°
2026-05-05 15:04 46.41650 5.26855 34903 ft 458 kts 108°
2026-05-05 15:04 46.39992 5.35797 34881 ft 458 kts 109°
2026-05-05 15:05 46.37515 5.44184 34833 ft 450 kts 126°
2026-05-05 15:05 46.35665 5.47747 34850 ft 446 kts 134°
2026-05-05 15:06 46.31560 5.54432 34834 ft 447 kts 135°
2026-05-05 15:06 46.27419 5.61223 34834 ft 450 kts 134°
2026-05-05 15:07 46.23405 5.68147 34864 ft 451 kts 134°
2026-05-05 15:07 46.19332 5.75059 34913 ft 452 kts 135°
2026-05-05 15:08 46.15197 5.81940 34920 ft 455 kts 135°
2026-05-05 15:08 46.11053 5.88877 34882 ft 458 kts 135°
2026-05-05 15:09 46.06894 5.95850 34875 ft 460 kts 135°
2026-05-05 15:09 46.02696 6.02851 34918 ft 460 kts 135°
2026-05-05 15:10 45.98521 6.09786 34936 ft 461 kts 135°
2026-05-05 15:10 45.94307 6.16786 34933 ft 462 kts 135°
2026-05-05 15:11 45.90122 6.23719 34941 ft 461 kts 135°
2026-05-05 15:11 45.85913 6.30661 34935 ft 459 kts 136°
2026-05-05 15:12 45.81730 6.37506 34953 ft 456 kts 138°
2026-05-05 15:12 45.76919 6.43247 34951 ft 446 kts 149°
2026-05-05 15:13 45.71799 6.48238 34931 ft 445 kts 150°
2026-05-05 15:13 45.66707 6.53348 34890 ft 447 kts 150°
2026-05-05 15:14 45.61657 6.58562 34871 ft 447 kts 150°
2026-05-05 15:14 45.56609 6.63665 34876 ft 446 kts 150°
2026-05-05 15:15 45.51536 6.68773 34878 ft 448 kts 151°
2026-05-05 15:15 45.46458 6.73870 34881 ft 449 kts 151°
2026-05-05 15:16 45.41340 6.79029 34900 ft 450 kts 151°
2026-05-05 15:16 45.36263 6.84132 34952 ft 449 kts 150°
2026-05-05 15:17 45.31129 6.89274 34968 ft 450 kts 151°
2026-05-05 15:17 45.26038 6.94484 34966 ft 454 kts 146°
2026-05-05 15:18 45.21428 7.00692 34968 ft 458 kts 141°
2026-05-05 15:18 45.16923 7.07093 34978 ft 456 kts 142°
2026-05-05 15:19 45.12381 7.13333 34980 ft 455 kts 143°
2026-05-05 15:19 45.08234 7.20228 34981 ft 463 kts 132°
2026-05-05 15:20 45.04600 7.27754 34973 ft 465 kts 130°
2026-05-05 15:20 45.00943 7.35305 34949 ft 464 kts 132°
2026-05-05 15:21 44.96998 7.42474 34923 ft 457 kts 140°
2026-05-05 15:21 44.92518 7.48776 34934 ft 456 kts 143°
2026-05-05 15:22 44.87922 7.55011 34945 ft 459 kts 142°
2026-05-05 15:22 44.83370 7.61397 34949 ft 463 kts 141°
2026-05-05 15:23 44.78815 7.67794 34986 ft 463 kts 142°
2026-05-05 15:23 44.74220 7.74152 35038 ft 464 kts 142°
2026-05-05 15:24 44.69596 7.80534 35036 ft 466 kts 141°
2026-05-05 15:24 44.64975 7.86952 35035 ft 467 kts 142°
2026-05-05 15:25 44.60383 7.93257 35038 ft 465 kts 142°
2026-05-05 15:25 44.55724 7.99658 35032 ft 464 kts 142°
2026-05-05 15:26 44.51096 8.06006 35036 ft 463 kts 141°
2026-05-05 15:26 44.46531 8.12278 35031 ft 462 kts 142°
2026-05-05 15:27 44.41926 8.18539 34993 ft 461 kts 142°
2026-05-05 15:27 44.37349 8.24752 34949 ft 462 kts 142°
2026-05-05 15:28 44.33484 8.30021 34936 ft 463 kts 142°
2026-05-05 15:28 44.28094 8.37319 34934 ft 465 kts 142°
2026-05-05 15:29 44.23465 8.43606 34930 ft 467 kts 141°
2026-05-05 15:29 44.19558 8.48869 34933 ft 469 kts 142°
2026-05-05 15:30 44.14076 8.56234 34959 ft 469 kts 141°
2026-05-05 15:30 44.10171 8.61478 34998 ft 469 kts 141°
2026-05-05 15:31 44.05459 8.67779 35017 ft 470 kts 142°
2026-05-05 15:31 44.00750 8.74113 35021 ft 470 kts 142°
2026-05-05 15:32 43.96061 8.80380 35019 ft 468 kts 142°
2026-05-05 15:32 43.91384 8.86611 35018 ft 467 kts 142°
2026-05-05 15:33 43.86674 8.92838 35019 ft 465 kts 142°
2026-05-05 15:33 43.81987 8.99046 35014 ft 464 kts 142°
2026-05-05 15:34 43.77316 9.05216 34977 ft 464 kts 142°
2026-05-05 15:34 43.72637 9.11395 34935 ft 465 kts 142°
2026-05-05 15:35 43.67978 9.17529 34925 ft 464 kts 142°
2026-05-05 15:35 43.63263 9.23727 34927 ft 464 kts 142°
2026-05-05 15:36 43.58605 9.29826 34926 ft 466 kts 143°
2026-05-05 15:36 43.53884 9.35990 34928 ft 468 kts 142°
2026-05-05 15:37 43.49149 9.42157 34937 ft 470 kts 142°
2026-05-05 15:37 43.44388 9.48357 34964 ft 471 kts 142°
2026-05-05 15:38 43.39622 9.54547 35011 ft 472 kts 142°
2026-05-05 15:38 43.34825 9.60766 35025 ft 473 kts 142°
2026-05-05 15:39 43.30062 9.66926 35029 ft 473 kts 143°
2026-05-05 15:39 43.25259 9.73112 35038 ft 472 kts 142°
2026-05-05 15:40 43.20478 9.79265 35040 ft 469 kts 143°
2026-05-05 15:40 43.15714 9.85375 35035 ft 468 kts 142°
2026-05-05 15:41 43.10955 9.91473 35028 ft 467 kts 143°
2026-05-05 15:41 43.06224 9.97515 34985 ft 468 kts 143°
2026-05-05 15:42 43.01454 10.03605 34946 ft 469 kts 143°
2026-05-05 15:42 42.96666 10.09689 34952 ft 470 kts 143°
2026-05-05 15:43 42.91872 10.15765 34950 ft 473 kts 143°
2026-05-05 15:43 42.87033 10.21912 34952 ft 476 kts 143°
2026-05-05 15:44 42.82221 10.28002 34953 ft 478 kts 143°
2026-05-05 15:44 42.77275 10.34201 34997 ft 479 kts 142°
2026-05-05 15:45 42.72467 10.40396 35001 ft 472 kts 139°
2026-05-05 15:45 42.67966 10.46923 35006 ft 479 kts 138°
2026-05-05 15:46 42.63472 10.53602 35002 ft 480 kts 137°
2026-05-05 15:46 42.58911 10.60286 35000 ft 480 kts 138°
2026-05-05 15:47 42.54357 10.66877 35000 ft 481 kts 138°
2026-05-05 15:47 42.49802 10.73529 35000 ft 481 kts 138°
2026-05-05 15:48 42.45246 10.80157 34999 ft 479 kts 138°
2026-05-05 15:48 42.40677 10.86739 34999 ft 480 kts 138°
2026-05-05 15:49 42.36128 10.93322 34982 ft 480 kts 138°
2026-05-05 15:49 42.31572 10.99922 34947 ft 481 kts 138°
2026-05-05 15:50 42.26993 11.06505 34963 ft 480 kts 138°
2026-05-05 15:50 42.22431 11.13060 35000 ft 478 kts 139°
2026-05-05 15:51 42.17867 11.19598 35045 ft 478 kts 139°
2026-05-05 15:51 42.13323 11.26108 35038 ft 479 kts 139°
2026-05-05 15:52 42.08743 11.32639 35002 ft 480 kts 138°
2026-05-05 15:52 42.04144 11.39193 34974 ft 482 kts 138°
2026-05-05 15:53 41.99606 11.45661 34982 ft 483 kts 138°
2026-05-05 15:53 41.94902 11.52321 35014 ft 484 kts 138°
2026-05-05 15:54 41.90271 11.58861 35031 ft 486 kts 138°
2026-05-05 15:54 41.85578 11.65475 35073 ft 486 kts 138°
2026-05-05 15:55 41.80942 11.71997 35095 ft 487 kts 138°
2026-05-05 15:55 41.76279 11.78579 35101 ft 486 kts 137°
2026-05-05 15:56 41.71625 11.85185 35095 ft 485 kts 138°
2026-05-05 15:56 41.66982 11.91687 35101 ft 484 kts 139°
2026-05-05 15:57 41.62671 11.97653 35090 ft 483 kts 139°
2026-05-05 15:57 41.58008 12.04134 35061 ft 483 kts 139°
2026-05-05 15:58 41.53360 12.10608 35018 ft 483 kts 139°
2026-05-05 15:58 41.48692 12.17048 35011 ft 484 kts 139°
2026-05-05 15:59 41.44011 12.23532 35008 ft 485 kts 139°
2026-05-05 15:59 41.39326 12.29990 34632 ft 484 kts 138°
2026-05-05 15:59 41.36983 12.33212 34385 ft 481 kts 139°
2026-05-05 16:00 41.34681 12.36376 34132 ft 481 kts 138°
2026-05-05 16:00 41.32374 12.39559 33874 ft 481 kts 138°
2026-05-05 16:00 41.30028 12.42780 33613 ft 482 kts 139°
2026-05-05 16:00 41.27667 12.46011 33351 ft 483 kts 139°
2026-05-05 16:01 41.25348 12.49187 33094 ft 484 kts 139°
2026-05-05 16:01 41.22967 12.52441 32830 ft 485 kts 140°
2026-05-05 16:01 41.20652 12.55596 32574 ft 487 kts 140°
2026-05-05 16:01 41.18249 12.58887 32308 ft 489 kts 140°
2026-05-05 16:02 41.15869 12.62156 32045 ft 491 kts 140°
2026-05-05 16:02 41.13532 12.65354 31788 ft 492 kts 140°
2026-05-05 16:02 41.11131 12.68627 31525 ft 492 kts 140°
2026-05-05 16:02 41.08725 12.71902 31262 ft 493 kts 140°
2026-05-05 16:03 41.06338 12.75154 31001 ft 493 kts 141°
2026-05-05 16:03 41.03950 12.78402 30741 ft 493 kts 141°
2026-05-05 16:03 41.01540 12.81675 30478 ft 493 kts 141°
2026-05-05 16:03 40.99153 12.84907 30219 ft 493 kts 140°
2026-05-05 16:04 40.96752 12.88146 29959 ft 493 kts 140°
2026-05-05 16:04 40.94351 12.91417 29683 ft 495 kts 139°
2026-05-05 16:04 40.92159 12.94995 29188 ft 504 kts 130°
2026-05-05 16:04 40.90452 12.99004 28662 ft 510 kts 117°
2026-05-05 16:05 40.89322 13.03467 28119 ft 514 kts 108°
2026-05-05 16:05 40.88450 13.08080 27431 ft 514 kts 106°
2026-05-05 16:05 40.87605 13.12587 26617 ft 513 kts 107°
2026-05-05 16:05 40.86672 13.17206 25619 ft 513 kts 108°
2026-05-05 16:06 40.85675 13.21708 24545 ft 513 kts 109°
2026-05-05 16:06 40.84634 13.26199 23736 ft 507 kts 109°
2026-05-05 16:06 40.83630 13.30634 23039 ft 499 kts 108°
2026-05-05 16:06 40.82694 13.34944 22411 ft 491 kts 108°
2026-05-05 16:07 40.81766 13.39309 21602 ft 487 kts 107°
2026-05-05 16:07 40.80853 13.43614 20803 ft 480 kts 107°
2026-05-05 16:07 40.79944 13.47805 20002 ft 468 kts 108°
2026-05-05 16:07 40.79046 13.51868 19222 ft 457 kts 108°
2026-05-05 16:08 40.78157 13.55849 18494 ft 447 kts 108°
2026-05-05 16:08 40.77292 13.59726 17782 ft 437 kts 108°
2026-05-05 16:08 40.76456 13.63531 17089 ft 431 kts 108°
2026-05-05 16:08 40.75639 13.67290 16489 ft 422 kts 107°
2026-05-05 16:09 40.75163 13.71040 16099 ft 409 kts 92°
2026-05-05 16:09 40.75534 13.74633 15793 ft 395 kts 70°
2026-05-05 16:09 40.76786 13.77805 15576 ft 376 kts 55°
2026-05-05 16:09 40.78214 13.80543 15472 ft 359 kts 53°
2026-05-05 16:10 40.79642 13.83235 15333 ft 347 kts 53°
2026-05-05 16:10 40.80955 13.85833 15195 ft 337 kts 56°
2026-05-05 16:10 40.82192 13.88438 15056 ft 326 kts 57°
2026-05-05 16:10 40.83331 13.90914 14922 ft 315 kts 57°
2026-05-05 16:11 40.84097 13.92581 14780 ft 311 kts 57°
2026-05-05 16:11 40.87378 13.99754 13968 ft 304 kts 57°
2026-05-05 16:12 40.88459 14.02157 13692 ft 302 kts 57°
2026-05-05 16:12 40.90598 14.06866 13141 ft 298 kts 57°
2026-05-05 16:13 40.93772 14.13869 12340 ft 293 kts 57°
2026-05-05 16:13 40.94803 14.16153 12081 ft 293 kts 57°
2026-05-05 16:13 40.95844 14.18454 11793 ft 290 kts 57°
2026-05-05 16:14 40.97924 14.23049 11234 ft 288 kts 57°
2026-05-05 16:14 40.99944 14.27533 10692 ft 285 kts 57°
2026-05-05 16:15 41.01971 14.32039 10143 ft 282 kts 57°
2026-05-05 16:15 41.03970 14.36461 9839 ft 281 kts 57°
2026-05-05 16:16 41.05982 14.40919 9573 ft 279 kts 57°
2026-05-05 16:16 41.07948 14.45285 9295 ft 273 kts 57°
2026-05-05 16:17 41.09928 14.49393 9005 ft 255 kts 56°
2026-05-05 16:17 41.10872 14.51369 8876 ft 252 kts 56°
2026-05-05 16:18 41.12728 14.55318 8589 ft 252 kts 56°
2026-05-05 16:18 41.13659 14.57284 8435 ft 250 kts 56°
2026-05-05 16:18 41.15489 14.61169 8137 ft 249 kts 57°
2026-05-05 16:19 41.16390 14.63131 7971 ft 248 kts 57°
2026-05-05 16:19 41.17290 14.65085 7814 ft 246 kts 57°
2026-05-05 16:19 41.19071 14.68912 7292 ft 240 kts 57°
2026-05-05 16:20 41.20589 14.72851 6738 ft 240 kts 84°
2026-05-05 16:20 41.19277 14.76433 6942 ft 217 kts 150°
2026-05-05 16:21 41.16689 14.78386 7050 ft 214 kts 155°
2026-05-05 16:22 41.12631 14.79329 6998 ft 199 kts 210°
2026-05-05 16:22 41.10830 14.76711 7015 ft 194 kts 242°
2026-05-05 16:23 41.09483 14.73602 7004 ft 194 kts 238°
2026-05-05 16:23 41.08770 14.72104 6997 ft 196 kts 238°
2026-05-05 16:23 41.07346 14.69088 6979 ft 194 kts 239°
2026-05-05 16:24 41.06620 14.67530 7005 ft 194 kts 239°
2026-05-05 16:24 41.05903 14.66001 7025 ft 194 kts 239°
2026-05-05 16:24 41.04496 14.62996 6908 ft 190 kts 239°
2026-05-05 16:25 41.03805 14.61518 6721 ft 184 kts 239°
2026-05-05 16:25 41.02513 14.58732 6224 ft 175 kts 238°
2026-05-05 16:25 41.01870 14.57364 5827 ft 179 kts 238°
2026-05-05 16:26 41.00561 14.54560 5266 ft 174 kts 238°
2026-05-05 16:26 40.99296 14.51863 4574 ft 178 kts 238°
2026-05-05 16:27 40.98631 14.50436 4131 ft 184 kts 238°
2026-05-05 16:27 40.97954 14.48980 3766 ft 185 kts 236°
2026-05-05 16:27 40.97273 14.47529 3434 ft 185 kts 236°
2026-05-05 16:27 40.96595 14.46087 3124 ft 185 kts 236°
2026-05-05 16:28 40.95917 14.44642 2813 ft 185 kts 236°
2026-05-05 16:28 40.95236 14.43190 2484 ft 186 kts 236°
2026-05-05 16:28 40.94579 14.41753 2273 ft 174 kts 235°
2026-05-05 16:28 40.93988 14.40482 2251 ft 156 kts 234°
2026-05-05 16:29 40.93422 14.39294 2062 ft 146 kts 233°
2026-05-05 16:29 40.92893 14.38176 1840 ft 146 kts 233°
2026-05-05 16:29 40.92349 14.37021 1603 ft 146 kts 234°
2026-05-05 16:29 40.91818 14.35899 1383 ft 146 kts 233°
2026-05-05 16:30 40.91286 14.34767 1166 ft 145 kts 234°
2026-05-05 16:30 40.90750 14.33634 951 ft 145 kts 233°
2026-05-05 16:30 40.90219 14.32505 738 ft 144 kts 233°
2026-05-05 16:30 40.89693 14.31375 502 ft 143 kts 234°
2026-05-05 16:31 40.89162 14.30265 300 ft 143 kts 234°
2026-05-05 16:31 40.88680 14.29241 271 ft 110 kts 233°
2026-05-05 16:31 40.88380 14.28599 270 ft 56 kts 238°
2026-05-05 16:31 40.88236 14.28296 270 ft 29 kts 237°
2026-05-05 16:32 40.88153 14.28126 270 ft 12 kts 238°
2026-05-05 16:32 40.88108 14.28058 270 ft 9 kts 202°
2026-05-05 16:32 40.88054 14.28083 270 ft 9 kts 147°
2026-05-05 16:32 40.88001 14.28126 270 ft 7 kts 149°
2026-05-05 16:33 40.88000 14.28126 270 ft 0 kts 148°
2026-05-05 16:33 40.87997 14.28129 270 ft 1 kts 148°
2026-05-05 16:34 40.87989 14.28135 270 ft 2 kts 148°
2026-05-05 16:34 40.87978 14.28144 270 ft 2 kts 148°
2026-05-05 16:34 40.87964 14.28159 270 ft 3 kts 131°
2026-05-05 16:34 40.87960 14.28184 270 ft 3 kts 90°
2026-05-05 16:35 40.87964 14.28215 270 ft 4 kts 71°
2026-05-05 16:35 40.87972 14.28251 270 ft 4 kts 84°
2026-05-05 16:35 40.87954 14.28272 270 ft 4 kts 156°
2026-05-05 16:35 40.87925 14.28281 270 ft 5 kts 171°
2026-05-05 16:36 40.87891 14.28289 270 ft 5 kts 170°
2026-05-05 16:36 40.87853 14.28297 270 ft 6 kts 171°
2026-05-05 16:36 40.87812 14.28303 270 ft 6 kts 178°
2026-05-05 16:36 40.87784 14.28303 270 ft 2 kts 181°
2026-05-05 16:37 40.87770 14.28303 270 ft 0 kts 179°